GSAT0211 (GALILEO 14)

Last updated on Fri Dec 12 2025 00:02:35 GMT+0000 (Coordinated Universal Time)

1 41549U 16030A 25345.08962215 .00000009 00000+0 00000+0 0 9992 2 41549 55.1527 226.8689 0004128 18.4657 341.6286 1.70473055 59463
UTC large
Height (km)
Speed (km/s)
/
Latitude / Longitude
Inclination (degrees)
Orbital Period (minutes)
Azimuth
Elevation
Range (km)
Doppler Factor

Next 0 passes for location: London (51.5072 / 0.1276)

Sorry there are no passes over London.